This is the latest recevied weather packets stored in our database for station/object KF0ZH. If no packets are shown the sender has not sent any weather packets the latest 10 day(s).
| Time | Temp. | Humidity | Pressure | Rain* | Wind** | Luminosity | Snow |
|---|---|---|---|---|---|---|---|
| 1777938121 | 11.67° C | 52% | 1002.5 hPa | 0 mm | 3.13 m/s, 303° | - | - |
| 1777937830 | 11.67° C | 51% | 1002.4 hPa | 0 mm | 3.58 m/s, 306° | - | - |
| 1777937521 | 11.67° C | 52% | 1002.4 hPa | 0 mm | 3.13 m/s, 316° | - | - |
| 1777937221 | 11.67° C | 51% | 1002.1 hPa | 0 mm | 3.13 m/s, 334° | - | - |
| 1777936921 | 11.67° C | 52% | 1002.1 hPa | 0 mm | 3.13 m/s, 334° | - | - |
| 1777936621 | 11.67° C | 52% | 1002 hPa | 0 mm | 3.13 m/s, 338° | - | - |
| 1777936321 | 11.67° C | 52% | 1001.9 hPa | 0 mm | 2.68 m/s, 310° | - | - |
| 1777936021 | 11.67° C | 52% | 1001.9 hPa | 0 mm | 6.26 m/s, 315° | - | - |
| 1777935721 | 11.67° C | 51% | 1001.8 hPa | 0 mm | 4.92 m/s, 322° | - | - |
| 1777935421 | 12.22° C | 51% | 1001.5 hPa | 0 mm | 2.68 m/s, 270° | - | - |
| 1777935123 | 12.22° C | 52% | 1001.5 hPa | 0 mm | 0 m/s | - | - |
| 1777934821 | 12.22° C | 52% | 1001.4 hPa | 0 mm | 3.58 m/s, 343° | - | - |
| 1777934525 | 12.22° C | 51% | 1001.3 hPa | 0 mm | 2.24 m/s, 277° | - | - |
| 1777933620 | 12.78° C | 51% | 1000.9 hPa | 0 mm | 3.58 m/s, 313° | - | - |
| 1777933323 | 12.78° C | 51% | 1000.8 hPa | 0 mm | 4.02 m/s, 292° | - | - |
| 1777933023 | 12.78° C | 52% | 1000.6 hPa | 0 mm | 6.71 m/s, 327° | - | - |
| 1777932431 | 13.33° C | 50% | 1000.4 hPa | 0 mm | 3.58 m/s, 296° | - | - |
| 1777932122 | 13.33° C | 51% | 1000.4 hPa | 0 mm | 3.13 m/s, 347° | - | - |
| 1777931523 | 13.33° C | 50% | 1000.2 hPa | 0 mm | 4.92 m/s, 299° | - | - |
| 1777931222 | 12.78° C | 50% | 1000.1 hPa | 0 mm | 3.13 m/s, 299° | - | - |
| 1777930922 | 12.78° C | 51% | 1000 hPa | 0 mm | 4.02 m/s, 310° | - | - |
| 1777930621 | 13.33° C | 52% | 999.9 hPa | 0 mm | 6.26 m/s, 322° | - | - |
| 1777930321 | 13.33° C | 50% | 999.8 hPa | 0 mm | 2.24 m/s, 299° | - | - |
| 1777930022 | 13.33° C | 51% | 999.9 hPa | 0 mm | 4.02 m/s, 282° | - | - |
| 1777929723 | 13.33° C | 50% | 999.8 hPa | 0 mm | 4.47 m/s, 322° | - | - |
* Rain latest hour (hover to see other rain measurements)
** Current wind speed in m/s (hover to see current wind gust speed)